Weather History for LEZL - May, 2013

Change the Weather History Date:

Thursday, May 9, 2013

  Actual Average Record
Temperature  
Mean Temperature 74 °F -  
Max Temperature 87 °F 82 °F 92 °F (2015)
Min Temperature 60 °F 58 °F 46 °F (2004)
Cooling Degree Days 8    
Growing Degree Days 24 (Base 50)    
Moisture  
Dew Point 49 °F    
Average Humidity 47    
Maximum Humidity 82    
Minimum Humidity 19    
Precipitation  
Precipitation 0.00 in - - ()
Sea Level Pressure  
Sea Level Pressure 30.00 in    
Wind  
Wind Speed 4 mph ()    
Max Wind Speed 16 mph    
Max Gust Speed -    
Averages and records for this station are not official NWS values.
T = Trace of Precipitation, MM = Missing Value Source: Averaged Metar Reports

Daily Weather History Graph

Daily Weather History Graph

Search for Another Location

Airport or City:

Trip Planner

Search our weather history database for the weather conditions in past years. The results will help you decide how hot, cold, wet, or windy it might be!

Date:

Astronomy

May. 09, 2013 Rise Set
Actual Time 7:19 AM CEST 9:20 PM CEST
Civil Twilight 6:51 AM CEST 9:49 PM CEST
Nautical Twilight 6:16 AM CEST 10:24 PM CEST
Astronomical Twilight 5:38 AM CEST 11:02 PM CEST
Moon 6:54 AM CEST (5/9) 9:02 PM CEST (5/9)
Length of Visible Light 14h 58m
Length of Day
14h 00m
Waning Crescent, 0% of the Moon is Illuminated
May 9
Waning Crescent
May 10
New
May 18
First Quarter
May 25
Full
May 31
Last Quarter

Hourly Weather History & Observations

Time (CEST) Temp. Dew Point Humidity Pressure Visibility Wind Dir Wind Speed Gust Speed Precip Events Conditions
12:00 AM 69.8 °F 51.8 °F 53% 29.98 in - Variable 2.3 mph - N/A   Clear
12:30 AM 69.8 °F 50.0 °F 49% 29.98 in - WSW 2.3 mph - N/A   Clear
1:00 AM 69.8 °F 48.2 °F 46% 29.98 in - WSW 1.2 mph - N/A   Clear
4:30 AM 62.6 °F 55.4 °F 77% 29.98 in - Variable 1.2 mph - N/A   Clear
5:00 AM 60.8 °F 53.6 °F 77% 29.98 in - SSE 2.3 mph - N/A   Clear
5:30 AM 60.8 °F 55.4 °F 82% 29.98 in - SSE 2.3 mph - N/A   Clear
6:00 AM 60.8 °F 55.4 °F 82% 29.98 in - South 3.5 mph - N/A   Clear
6:30 AM 60.8 °F 55.4 °F 82% 29.98 in - SSE 5.8 mph - N/A   Clear
7:00 AM 60.8 °F 55.4 °F 82% 29.98 in - SSE 4.6 mph - N/A   Clear
7:30 AM 60.8 °F 55.4 °F 82% 29.98 in - Calm Calm - N/A   Clear
8:00 AM 60.8 °F 55.4 °F 82% 30.01 in - Variable 1.2 mph - N/A   Clear
8:30 AM 62.6 °F 55.4 °F 77% 30.01 in - SSE 1.2 mph - N/A   Clear
9:00 AM 64.4 °F 55.4 °F 73% 30.04 in - Variable 1.2 mph - N/A   Clear
9:30 AM 66.2 °F 55.4 °F 68% 30.01 in - Calm Calm - N/A   Clear
10:00 AM 68.0 °F 57.2 °F 68% 30.04 in - Calm Calm - N/A   Clear
10:30 AM 69.8 °F 55.4 °F 60% 30.04 in - Calm Calm - N/A   Clear
11:00 AM 71.6 °F 55.4 °F 57% 30.04 in - Calm Calm - N/A   Clear
11:30 AM 73.4 °F 53.6 °F 50% 30.04 in - Calm Calm - N/A   Clear
12:00 PM 77.0 °F 50.0 °F 39% 30.04 in - SW 1.2 mph - N/A   Clear
12:30 PM 78.8 °F 46.4 °F 32% 30.04 in - West 1.2 mph - N/A   Clear
1:00 PM 80.6 °F 46.4 °F 30% 30.04 in - WSW 4.6 mph - N/A   Clear
1:30 PM 80.6 °F 44.6 °F 28% 30.04 in - Variable 3.5 mph - N/A   Clear
2:00 PM 82.4 °F 48.2 °F 30% 30.01 in - SW 3.5 mph - N/A   Clear
2:30 PM 84.2 °F 46.4 °F 27% 30.01 in - WSW 6.9 mph - N/A   Clear
3:00 PM 84.2 °F 48.2 °F 29% 30.01 in - SSW 8.1 mph - N/A   Clear
3:30 PM 86.0 °F 44.6 °F 23% 30.01 in - SW 3.5 mph - N/A   Clear
4:00 PM 87.8 °F 44.6 °F 22% 30.01 in - West 5.8 mph - N/A   Clear
4:30 PM 87.8 °F 41.0 °F 19% 29.98 in - WSW 12.7 mph - N/A   Clear
5:00 PM 87.8 °F 41.0 °F 19% 29.98 in - West 10.4 mph - N/A   Clear
5:30 PM 87.8 °F 42.8 °F 21% 29.98 in - West 8.1 mph - N/A   Clear
6:00 PM 87.8 °F 41.0 °F 19% 29.98 in - SSW 6.9 mph - N/A   Clear
6:30 PM 86.0 °F 39.2 °F 19% 29.98 in - SW 12.7 mph - N/A   Clear
7:00 PM 86.0 °F 39.2 °F 19% 29.98 in - SW 16.1 mph - N/A   Clear
8:00 PM 82.4 °F 42.8 °F 25% 29.98 in - SW 12.7 mph - N/A   Clear
8:30 PM 80.6 °F 42.8 °F 26% 29.98 in - SW 11.5 mph - N/A   Clear
9:00 PM 78.8 °F 46.4 °F 32% 29.98 in - SW 11.5 mph - N/A   Clear
9:30 PM 77.0 °F 44.6 °F 32% 30.01 in - SW 11.5 mph - N/A   Clear
10:00 PM 73.4 °F 44.6 °F 36% 30.01 in - SW 9.2 mph - N/A   Clear
10:30 PM 73.4 °F 48.2 °F 41% 30.04 in - SSW 6.9 mph - N/A   Clear
11:00 PM 71.6 °F 50.0 °F 46% 30.04 in - SSW 6.9 mph - N/A   Clear
11:30 PM 71.6 °F 50.0 °F 46% 30.04 in - SSW 8.1 mph - N/A   Clear